FW1932 Weather Reports


time (UTC)temp
C
wind
direction
speed
KPH
gust
KPH
rain 1hr
cm
rain 24hr
cm
rain mn
cm
humidity
%
barometer
mb
20260504081523 16 150 0.0 6.4 0.00 0.00 0.00 65 1016.7
20260504050008 11 244 0.0 1.6 0.00 0.00 0.00 81 1016.4
20260504044518 11 244 0.0 1.6 0.00 0.00 0.00 80 1016.4
20260504043010 11 243 1.6 4.8 0.00 0.00 0.00 80 1016.4
20260504041505 12 245 0.0 1.6 0.00 0.00 0.00 78 1016.4
20260504040004 12 245 0.0 1.6 0.00 0.00 0.00 76 1016.4
20260504034502 13 245 0.0 1.6 0.00 0.00 0.00 71 1016.5
20260504033001 13 245 0.0 3.2 0.00 0.00 0.00 70 1016.7
20260504031501 13 78 0.0 3.2 0.00 0.00 0.00 69 1016.8
20260504030105 13 84 0.0 3.2 0.00 0.00 0.00 70 1017.0
20260504024559 12 248 0.0 1.6 0.00 0.00 0.00 75 1017.0
20260504024500 12 248 0.0 1.6 0.00 0.00 0.00 75 1017.0
20260504023104 12 245 0.0 0.0 0.00 0.00 0.00 76 1017.1
20260504021554 12 245 0.0 1.6 0.00 0.00 0.00 73 1016.9
20260504020058 13 245 0.0 0.0 0.00 0.00 0.00 72 1017.0
20260504014553 12 245 0.0 1.6 0.00 0.00 0.00 72 1017.0
20260504013106 13 248 0.0 1.6 0.00 0.00 0.00 72 1016.9
20260504011548 13 81 0.0 1.6 0.00 0.00 0.00 69 1016.9
20260504010053 14 259 0.0 1.6 0.00 0.00 0.00 67 1016.9
20260504004558 15 207 0.0 6.4 0.00 0.00 0.00 64 1016.9
20260504003043 15 88 0.0 4.8 0.00 0.00 0.00 61 1016.8
20260504001543 15 243 1.6 8.0 0.00 0.00 0.00 61 1016.9
20260504000041 15 257 1.6 4.8 0.00 0.00 0.00 61 1017.0
20260503234545 15 270 3.2 8.0 0.00 0.00 0.00 60 1016.9
20260503233039 15 262 1.6 9.7 0.00 0.00 0.00 62 1016.8
20260503231538 15 269 3.2 11.3 0.00 0.00 0.00 63 1016.8
20260503230039 15 94 3.2 12.9 0.00 0.00 0.00 63 1016.8
20260503224533 15 247 3.2 11.3 0.00 0.00 0.00 65 1016.8
20260503223031 15 236 3.2 8.0 0.00 0.00 0.00 67 1016.6
20260503221528 15 248 0.0 1.6 0.00 0.00 0.00 68 1016.7
20260503220024 15 248 0.0 1.6 0.00 0.00 0.00 68 1016.6
20260503214526 15 247 0.0 4.8 0.00 0.00 0.00 68 1016.7
20260503213021 15 73 0.0 1.6 0.00 0.00 0.00 67 1016.6
20260503211520 15 73 0.0 0.0 0.00 0.00 0.00 67 1016.4
20260503210025 15 73 0.0 0.0 0.00 0.00 0.00 66 1016.4
20260503204516 16 73 0.0 1.6 0.00 0.00 0.00 64 1016.5
20260503203019 16 73 0.0 0.0 0.00 0.00 0.00 62 1016.4
20260503201516 16 73 0.0 3.2 0.00 0.00 0.00 63 1016.3
20260503200014 16 75 1.6 3.2 0.00 0.00 0.00 64 1016.4
20260503194515 16 74 0.0 4.8 0.00 0.00 0.00 62 1016.5
20260503193013 16 75 0.0 1.6 0.00 0.00 0.00 59 1016.6
20260503191513 16 75 0.0 0.0 0.00 0.00 0.00 61 1016.5
20260503190012 16 76 0.0 1.6 0.00 0.00 0.00 59 1016.2
20260503184529 17 75 0.0 0.0 0.00 0.00 0.00 60 1016.2
20260503183011 17 74 0.0 1.6 0.00 0.00 0.00 57 1016.3
20260503181511 17 79 0.0 3.2 0.00 0.00 0.00 58 1016.3
20260503180020 17 90 0.0 3.2 0.00 0.00 0.00 57 1016.4
20260503174510 17 75 0.0 3.2 0.00 0.00 0.00 53 1016.5
20260503173009 18 233 0.0 0.0 0.00 0.00 0.00 52 1016.7
20260503171509 18 248 0.0 4.8 0.00 0.00 0.00 51 1016.7